Location: Sommers-Bausch Observatory
(40.0037°N, 105.2635°W)
Time: 15:04:50
(UTC-07:00)

Daily predictions for brighter satellites

Satellite Brightness Start Highest point End
(mag) Time Altitude Azimuth Time Altitude Azimuth Time Altitude Azimuth
CORIOLIS 4.1 17:24:19 10° SSE 17:29:37 70° ENE 17:34:58 10° N
Cosmos 1743 Rocket 3.7 17:30:24 10° S 17:34:45 54° E 17:39:08 10° NNE
Tsikada Rocket 4.2 17:31:23 10° S 17:37:45 87° W 17:44:13 10° N
Cosmos 2219 Rocket 2.4 17:32:51 10° S 17:38:19 53° ESE 17:43:46 10° NNE
Cosmos 1328 Rocket 3.6 17:36:25 10° N 17:40:50 63° E 17:45:13 10° SSE
BREEZE-M DEB (TANK) 1.7 17:38:14 10° SW 17:41:53 59° SSE 17:43:55 11° ENE
Cosmos 1340 Rocket 4.5 17:40:40 10° ESE 17:42:52 15° E 17:45:05 10° NE
Cosmos 2278 Rocket 2.8 17:39:14 10° N 17:44:21 33° ENE 17:49:26 10° ESE
MONITOR-E 4.4 17:41:23 10° SSE 17:44:27 49° ENE 17:47:32 10° N
Cosmos 1908 3.4 17:41:27 10° N 17:45:20 78° W 17:49:13 10° S
Cosmos 2151 3.8 17:42:18 10° SSE 17:45:58 30° E 17:49:40 10° NNE
Cosmos 540 Rocket 4.1 17:42:04 10° SSE 17:46:41 34° E 17:51:20 10° NE
Cosmos 1515 Rocket 3.7 17:43:24 10° N 17:47:49 55° E 17:52:11 10° SSE
Cosmos 332 Rocket 3.8 17:44:08 10° SSW 17:48:55 76° ESE 17:53:47 10° NNE
SKYMED 2 3.8 17:47:06 10° NNE 17:51:21 50° E 17:55:34 10° S
SL-14 R/B 4.0 17:47:58 10° SSE 17:51:29 32° E 17:55:02 10° NNE
Cosmos 1674 3.3 17:48:58 10° SSW 17:52:43 60° W 17:56:32 10° N
USA 215 3.5 17:48:58 10° ESE 17:55:17 53° NE 18:01:36 10° NW
Cosmos 1844 3.7 17:49:51 10° NNW 17:55:37 69° ENE 18:01:23 10° SSE
Cosmos 1484 Rocket 2.7 17:53:03 10° SSE 17:56:56 72° ENE 18:00:54 10° N
Cosmos 1151 Rocket 3.2 17:53:03 10° N 17:57:11 46° E 18:01:17 10° SSE
SPOT 3 Rocket 4.2 17:53:38 10° S 17:58:42 61° WSW 18:03:49 10° NNW
Thor Agena Rocket 4.0 17:54:27 10° N 17:59:41 66° WNW 18:04:48 10° SSW
Haruka 4.5 17:57:38 10° SW 18:01:10 32° SSE 18:09:16 10° E
MSX 4.2 17:55:40 10° S 18:01:21 72° WSW 18:07:06 10° NNW
Cosmos 1500 Rocket 3.4 17:57:24 10° S 18:01:42 78° E 18:06:03 10° N
Cosmos 1125 Rocket 3.6 17:59:38 10° N 18:04:45 54° ENE 18:09:49 10° SE
BREEZE M DEB (TANK) 2.5 18:02:40 10° NW 18:05:07 24° NNE 18:05:47 21° NE
Cosmos 1634 Rocket 3.9 17:59:09 10° N 18:05:22 77° E 18:11:31 10° S
NOAA 12 4.4 18:00:40 10° SE 18:05:31 41° ENE 18:10:25 10° N
COSMOS 2428 3.5 18:00:11 10° SW 18:05:44 51° WNW 18:11:19 10° NNE
Cosmos 2237 Rocket 2.3 18:03:32 10° S 18:09:00 57° ESE 18:14:32 10° NNE
Cosmos 1300 2.7 18:06:03 10° N 18:09:50 58° E 18:13:37 10° SSE
ALOS 3.5 18:06:29 10° ESE 18:09:51 20° ENE 18:13:12 10° NNE
Cosmos 44 3.5 18:05:46 10° SSW 18:10:57 58° ESE 18:15:09 15° NE
Cosmos 1726 2.1 18:07:48 10° N 18:11:33 63° E 18:15:17 10° SSE
SL-16 R/B 3.2 18:09:19 10° SSE 18:13:52 26° ESE 18:16:18 19° ENE
Hubble Space Telescope 3.6 18:12:40 10° SSW 18:13:55 11° SSW 18:15:12 10° S
IDEFIX/ARIANE 42P 4.5 18:10:26 10° SSW 18:15:06 33° W 18:19:49 10° NNW
BREEZE-M DEB (TANK) 3.9 18:15:23 10° SSE 18:15:43 11° SSE 18:15:43 11° SSE
Sich 1 4.3 18:14:56 10° SE 18:17:57 21° E 18:17:57 21° E
Lacrosse 5 rocket 2.2 18:15:13 10° NNW 18:18:31 27° NE 18:19:24 25° ENE
CZ-4 R/B 4.3 18:16:00 10° SW 18:18:53 20° W 18:21:47 10° NW
OTV 4 1.2 18:16:18 10° W 18:19:09 45° S 18:20:41 22° SE
Cosmos 371 Rocket 3.5 18:14:31 10° SSW 18:19:19 74° WNW 18:24:08 10° NNE
Cosmos 841 Rocket 4.5 18:14:54 10° SW 18:19:59 48° WNW 18:25:06 10° N
FREGAT/IRIS 4.5 18:19:13 10° SE 18:25:11 - N 18:20:10 17° SE
Cosmos 2297 4.4 18:18:18 10° N 18:23:25 33° ENE 18:27:01 17° ESE
NOSS 0 Rocket 3.9 18:19:51 10° SSW 18:26:06 89° WNW 18:32:21 10° NNE
Resurs 01 Rocket 2.5 18:31:55 28° NE 18:31:55 28° NE 18:35:07 10° N
Cosmos 2084 3.8 18:28:29 10° SW 18:32:18 53° NW 18:34:44 20° NNE
Meteor 1-28 Rocket 3.4 18:30:56 10° N 18:34:39 69° WNW 18:38:20 10° SSW
Meteor 1-11 4.2 18:30:17 10° S 18:35:57 84° E 18:41:43 10° N
Aureole 2 Rocket 2.5 18:33:33 10° S 18:37:06 66° ESE 18:38:34 35° NE
CENTAUR R/B 3.9 18:33:13 10° WSW 18:38:50 34° NW 18:45:07 10° NNE
Cosmos 44 Rocket 4.1 18:34:01 10° SW 18:39:02 52° NW 18:43:12 14° NNE
COSMO-SKYMED 1 3.6 18:35:11 10° N 18:39:20 45° WNW 18:43:28 10° SW
Lacrosse 5 4.1 18:39:20 10° NW 18:41:38 13° NNW 18:43:56 10° NNE
Cosmos 1844 Rocket 4.3 18:36:33 10° NW 18:41:42 37° WSW 18:46:48 10° S
Cosmos 1707 Rocket 3.7 18:38:56 10° N 18:43:06 45° E 18:47:15 10° SSE
Cosmos 1461 3.5 18:43:31 10° S 18:47:02 36° SE 18:47:02 36° SE
SJ-6B 2.8 18:44:22 10° SSE 18:48:24 87° ENE 18:52:32 10° NNW
FengYun 1-2 T 4.2 18:46:35 10° SSE 18:52:02 57° ENE 18:57:27 10° N
Cosmos 1666 Rocket 3.6 18:48:34 10° S 18:52:39 53° E 18:52:39 53° E
Cosmos 1980 4.4 18:50:53 10° SW 18:56:26 54° WNW 19:01:38 12° NNE
Cosmos 2058 3.7 18:52:46 10° SSW 18:56:46 50° W 19:00:47 10° N
Cosmos 2279 Rocket 4.2 18:51:24 10° NNW 18:57:35 71° W 19:03:45 10° S
H-2A ROCKET BODY 3.9 18:36:07 10° WSW 18:58:46 41° S 19:02:29 23° SE
Cosmos 1703 3.3 19:00:01 10° SSW 19:03:53 74° W 19:04:46 51° NNW
Cosmos 304 Rocket 3.7 19:00:19 10° SSW 19:05:08 88° WNW 19:06:43 43° NNE
FENGYUN 3A 3.5 19:00:35 10° SSE 19:05:53 70° ENE 19:11:15 10° N
Cosmos 2333 Rocket 3.6 19:04:03 10° SW 19:09:13 36° WNW 19:14:23 10° N
Nadezhda 4 Rocket 3.9 19:11:02 10° S 19:17:17 89° E 19:23:38 10° N
Cosmos 1340 Rocket 4.3 19:15:23 10° SW 19:19:01 35° WNW 19:21:05 21° NNW
Cosmos 1356 Rocket 4.1 19:16:53 10° SSW 19:19:50 46° SW 19:19:50 46° SW
Cosmos 2219 Rocket 4.2 19:18:09 10° WSW 19:22:34 23° NW 19:27:00 10° N
Cosmos 2278 Rocket 3.7 19:23:18 10° NW 19:28:23 35° WSW 19:33:27 10° SSW
Cosmos 1626 3.7 19:24:58 10° SSW 19:27:22 33° SW 19:27:22 33° SW
Cosmos 1092 Rocket 3.9 19:28:19 10° S 19:34:39 88° E 19:36:36 48° N
USA 215 4.1 19:32:58 15° SSE 19:38:17 47° SW 19:44:34 10° WNW
ALOS 3.4 19:42:34 10° SSW 19:46:58 41° W 19:51:24 10° NNW
Cosmos 2237 Rocket 4.3 19:49:11 10° WSW 19:53:27 22° NW 19:56:46 14° NNW
SL-16 R/B 3.1 19:52:21 10° SW 19:57:42 43° WNW 19:58:16 42° NW
Lacrosse 5 rocket 4.0 19:54:10 10° WNW 19:55:10 17° WNW 19:55:10 17° WNW
Resurs 01 Rocket 4.0 20:09:28 20° WNW 20:09:28 20° WNW 20:11:24 10° NW
USA 229 DEB 4.5 20:14:43 10° SW 20:19:18 45° SW 20:19:18 45° SW
USA 229 4.5 20:14:49 10° SW 20:19:20 44° SW 20:19:20 44° SW
